EW1587 Weather Reports


time (UTC)temp
F
wind
direction
speed
knots
gust
knots
rain 1hr
in
rain 24hr
in
rain mn
in
humidity
%
barometer
mb
20260906163545 79 240 1.7 5.2 0.00 0.00 0.00 79 1017.3
20260906163045 79 248 0.9 5.2 0.00 0.00 0.00 79 1017.1
20260906162545 79 205 0.9 5.2 0.00 0.00 0.00 80 1017.0
20260906162043 79 172 2.6 5.2 0.00 0.00 0.00 81 1017.1
20260906161546 78 205 1.7 7.0 0.00 0.00 0.00 82 1017.2
20260906161038 77 253 0.9 7.0 0.00 0.00 0.00 83 1017.2
20260906160538 77 180 1.7 7.0 0.00 0.00 0.00 84 1017.2
20260906160038 77 201 1.7 6.1 0.00 0.00 0.00 83 1017.2
20260906155537 77 259 1.7 6.1 0.00 0.00 0.00 84 1017.3
20260906155035 76 218 0.9 10.4 0.00 0.00 0.00 85 1017.3
20260906154543 76 226 0.9 10.4 0.00 0.00 0.00 84 1017.4
20260906154035 76 89 3.5 7.8 0.00 0.00 0.00 83 1017.6
20260906153534 76 346 1.7 6.1 0.00 0.00 0.00 84 1017.7
20260906153035 76 165 0.9 9.6 0.00 0.00 0.00 86 1017.6
20260906152531 75 190 2.6 9.6 0.00 0.00 0.00 86 1017.6
20260906152033 75 203 1.7 9.6 0.00 0.00 0.00 86 1017.5
20260906151531 75 194 4.3 9.6 0.00 0.00 0.00 85 1017.6
20260906151030 75 181 4.3 7.8 0.00 0.00 0.00 87 1017.7
20260906150528 74 184 0.0 9.6 0.00 0.00 0.00 89 1017.6
20260906150027 74 218 4.3 9.6 0.00 0.00 0.00 88 1017.6
20260906145539 73 16 4.3 9.6 0.00 0.00 0.00 89 1017.5
20260906145023 73 226 2.6 9.6 0.00 0.00 0.00 89 1017.6
20260906144522 73 163 4.3 9.6 0.00 0.00 0.00 90 1017.6
20260906144023 73 248 3.5 9.6 0.00 0.00 0.00 90 1017.6
20260906143519 72 136 2.6 8.7 0.00 0.00 0.00 90 1017.4
20260906143017 72 162 0.9 7.8 0.00 0.00 0.00 91 1017.4
20260906142520 72 143 1.7 7.0 0.00 0.00 0.00 91 1017.4
20260906142017 72 111 2.6 6.1 0.00 0.00 0.00 92 1017.3
20260906141516 72 108 1.7 7.0 0.00 0.00 0.00 92 1017.4
20260906141016 72 156 0.9 7.0 0.00 0.00 0.00 93 1017.5
20260906140512 71 163 0.9 7.0 0.00 0.00 0.00 94 1017.5
20260906140023 71 166 1.7 7.8 0.00 0.00 0.00 94 1017.5
20260906135511 70 62 2.6 7.8 0.00 0.00 0.00 94 1017.5
20260906135014 70 172 1.7 7.0 0.00 0.00 0.00 94 1017.4
20260906134510 70 173 1.7 7.0 0.00 0.00 0.00 95 1017.4
20260906134009 70 160 0.9 6.1 0.00 0.00 0.00 96 1017.4
20260906133508 69 101 1.7 7.0 0.00 0.00 0.00 96 1017.2
20260906133021 69 198 1.7 7.0 0.00 0.00 0.00 95 1017.2
20260906132508 70 183 0.9 5.2 0.00 0.00 0.00 96 1017.2
20260906132007 70 172 0.0 5.2 0.00 0.00 0.00 96 1017.2
20260906131508 69 152 0.9 5.2 0.00 0.00 0.00 97 1017.1
20260906131007 69 35 0.0 4.3 0.00 0.00 0.00 97 1017.1
20260906130507 69 49 0.0 3.5 0.00 0.00 0.00 98 1017.1
20260906130018 68 165 0.0 3.5 0.00 0.00 0.00 98 1017.1
20260906125506 68 218 0.0 4.3 0.00 0.00 0.00 98 1017.1
20260906125009 68 64 0.9 4.3 0.00 0.00 0.00 98 1017.1
20260906124505 68 26 0.0 3.5 0.00 0.00 0.00 99 1017.2
20260906124005 68 180 0.0 3.5 0.00 0.00 0.00 99 1017.1
20260906123505 67 170 0.0 3.5 0.00 0.00 0.00 99 1017.1
20260906123004 67 79 0.0 2.6 0.00 0.00 0.00 99 1017.2
20260906122504 67 143 0.0 2.6 0.00 0.00 0.00 99 1017.3
20260906122002 67 118 0.0 1.7 0.00 0.00 0.00 99 1017.2
20260906121503 66 247 0.0 1.7 0.00 0.00 0.00 99 1017.2
20260906121002 66 132 0.0 1.7 0.00 0.00 0.00 99 1017.2
20260906120503 66 188 0.0 1.7 0.00 0.00 0.00 99 1017.2
20260906120001 66 140 0.0 1.7 0.00 0.00 0.00 99 1017.3
20260906115502 66 94 0.0 0.9 0.00 0.00 0.00 99 1017.2
20260906115000 66 97 0.0 1.7 0.00 0.00 0.00 99 1017.2
20260906114504 66 94 0.0 1.7 0.00 0.00 0.00 99 1017.1
20260906114100 66 88 0.0 0.9 0.00 0.00 0.00 99 1017.1
20260906113600 67 96 0.0 1.7 0.00 0.00 0.00 99 1017.1
20260906113100 66 93 0.0 1.7 0.00 0.00 0.00 99 1017.1
20260906112559 66 93 0.0 0.9 0.00 0.00 0.00 99 1017.1
20260906112100 66 74 0.0 0.9 0.00 0.00 0.00 99 1017.1
20260906111616 66 50 0.0 0.9 0.00 0.00 0.00 98 1017.0
20260906111057 66 107 0.0 1.7 0.00 0.00 0.00 98 1017.0
20260906110558 66 165 0.0 1.7 0.00 0.00 0.00 98 1016.9
20260906110057 66 177 0.0 0.9 0.00 0.00 0.00 98 1016.9
20260906105556 66 23 0.0 0.9 0.00 0.00 0.00 98 1016.8
20260906105058 67 56 0.0 0.0 0.00 0.00 0.00 98 1016.8
20260906104556 67 58 0.0 0.9 0.00 0.00 0.00 98 1016.9
20260906104055 67 108 0.0 0.9 0.00 0.00 0.00 98 1016.9
20260906103554 67 85 0.0 0.9 0.00 0.00 0.00 98 1016.8
20260906103054 67 147 0.0 2.6 0.00 0.00 0.00 98 1016.7
20260906102553 67 139 0.0 2.6 0.00 0.00 0.00 98 1016.7
20260906102052 67 158 0.0 3.5 0.00 0.00 0.00 98 1016.6
20260906101552 67 222 0.0 4.3 0.00 0.00 0.00 98 1016.6
20260906101052 67 190 0.9 4.3 0.00 0.00 0.00 98 1016.5
20260906100554 67 159 0.0 4.3 0.00 0.00 0.00 98 1016.5
20260906100058 67 194 0.0 4.3 0.00 0.00 0.00 98 1016.5
20260906095550 67 205 0.9 4.3 0.00 0.00 0.00 98 1016.6
20260906095050 67 194 0.0 4.3 0.00 0.00 0.00 98 1016.5
20260906094551 67 198 0.0 2.6 0.00 0.00 0.00 98 1016.5
20260906094052 67 222 0.0 2.6 0.00 0.00 0.00 98 1016.5
20260906093550 67 73 0.0 4.3 0.00 0.00 0.00 98 1016.5
20260906093051 67 166 0.0 4.3 0.00 0.00 0.00 98 1016.3
20260906092552 67 248 0.0 2.6 0.00 0.00 0.00 97 1016.3
20260906092049 67 259 0.0 2.6 0.00 0.00 0.00 97 1016.2
20260906091549 67 210 0.0 0.9 0.00 0.00 0.00 97 1016.2
20260906091047 67 245 0.0 0.9 0.00 0.00 0.00 97 1016.2
20260906090546 68 190 0.0 0.9 0.00 0.00 0.00 97 1016.2
20260906090046 68 136 0.0 1.7 0.00 0.00 0.00 97 1016.1
20260906085551 68 48 0.0 1.7 0.00 0.00 0.00 97 1016.0
20260906085045 68 82 0.0 2.6 0.00 0.00 0.00 97 1016.0
20260906084546 68 86 0.0 2.6 0.00 0.00 0.00 97 1016.0
20260906084046 68 98 0.0 1.7 0.00 0.00 0.00 97 1016.1
20260906083545 68 81 0.0 0.9 0.00 0.00 0.00 97 1016.2
20260906083045 68 96 0.0 1.7 0.00 0.00 0.00 97 1016.2
20260906082545 68 85 0.0 1.7 0.00 0.00 0.00 97 1016.1
20260906082045 68 98 0.0 3.5 0.00 0.00 0.00 97 1016.0
20260906081545 68 100 0.9 4.3 0.00 0.00 0.00 98 1016.0
20260906081044 68 87 0.9 1.7 0.00 0.00 0.00 98 1015.9
20260906080545 68 89 0.0 1.7 0.00 0.00 0.00 96 1015.9
20260906080050 68 67 0.0 0.9 0.00 0.00 0.00 96 1015.9
20260906075547 68 68 0.0 0.9 0.00 0.00 0.00 96 1016.0
20260906075042 69 93 0.0 1.7 0.00 0.00 0.00 97 1016.0
20260906074548 69 96 0.0 1.7 0.00 0.00 0.00 97 1015.8
20260906074040 69 91 0.0 0.9 0.00 0.00 0.00 95 1015.8
20260906073541 69 93 0.0 1.7 0.00 0.00 0.00 95 1015.7
20260906073039 69 93 0.0 1.7 0.00 0.00 0.00 96 1016.0
20260906072538 69 134 0.0 0.9 0.00 0.00 0.00 96 1016.0
20260906072039 69 98 0.0 1.7 0.00 0.00 0.00 96 1016.0
20260906071536 69 113 0.0 1.7 0.00 0.00 0.00 96 1016.1
20260906071136 69 100 0.0 1.7 0.00 0.00 0.00 96 1016.2
20260906070535 69 99 0.0 1.7 0.00 0.00 0.00 95 1016.1
20260906070037 70 92 0.0 1.7 0.00 0.00 0.00 95 1016.2
20260906065535 70 100 0.0 1.7 0.00 0.00 0.00 95 1016.4
20260906065034 70 127 0.0 1.7 0.00 0.00 0.00 95 1016.5
20260906064535 70 86 0.0 1.7 0.00 0.00 0.00 95 1016.5
20260906064034 70 73 0.9 1.7 0.00 0.00 0.00 96 1016.4
20260906063537 70 85 0.0 1.7 0.00 0.00 0.00 96 1016.4
20260906063037 70 88 0.0 0.9 0.00 0.00 0.00 96 1016.5
20260906062533 69 85 0.0 1.7 0.00 0.00 0.00 96 1016.6
20260906062033 69 96 0.0 1.7 0.00 0.00 0.00 96 1016.6
20260906061534 69 138 0.0 0.9 0.00 0.00 0.00 95 1016.6
20260906061035 69 139 0.0 3.5 0.00 0.00 0.00 95 1016.5
20260906060531 69 94 0.0 3.5 0.00 0.00 0.00 95 1016.4
20260906060034 69 111 0.0 1.7 0.00 0.00 0.00 95 1016.4
20260906052552 70 223 0.9 4.3 0.00 0.00 0.00 94 1016.3
20260906052051 70 180 0.9 5.2 0.00 0.00 0.00 94 1016.3
20260906051551 70 47 0.0 1.7 0.00 0.00 0.00 94 1016.2
20260906051050 70 91 0.0 2.6 0.00 0.00 0.00 94 1016.2
20260906050549 70 81 0.0 2.6 0.00 0.00 0.00 93 1016.2
20260906050051 71 218 0.0 2.6 0.00 0.00 0.00 93 1016.3
20260906045548 71 103 0.0 1.7 0.00 0.00 0.00 93 1016.3
20260906045048 71 52 0.0 1.7 0.00 0.00 0.00 93 1016.4
20260906044548 71 96 0.0 1.7 0.00 0.00 0.00 93 1016.5
20260906044047 71 158 0.0 1.7 0.00 0.00 0.00 92 1016.4
20260906043547 71 129 0.0 3.5 0.00 0.00 0.00 92 1016.5
20260906043047 71 131 0.0 3.5 0.00 0.00 0.00 93 1016.5
20260906042546 71 83 0.0 2.6 0.00 0.00 0.00 92 1016.6
20260906042047 71 29 0.0 0.0 0.00 0.00 0.00 92 1016.7
20260906040047 72 72 0.0 0.9 0.00 0.00 0.00 91 1016.6
20260906035542 72 91 0.0 1.7 0.00 0.00 0.00 91 1016.6
20260906035043 72 121 0.0 1.7 0.00 0.00 0.00 90 1016.6
20260906034549 72 127 0.0 2.6 0.00 0.00 0.00 90 1016.7
20260906034041 72 172 0.0 2.6 0.00 0.00 0.00 89 1016.5
20260906033541 72 104 0.0 2.6 0.00 0.00 0.00 89 1016.6
20260906033041 73 86 0.0 2.6 0.00 0.00 0.00 89 1016.6
20260906032542 73 105 0.0 1.7 0.00 0.00 0.00 89 1016.6
20260906032041 73 359 0.0 2.6 0.00 0.00 0.00 88 1016.7
20260906031604 73 176 0.0 2.6 0.00 0.00 0.00 88 1016.6
20260906031044 73 68 0.0 1.7 0.00 0.00 0.00 87 1016.6
20260906030541 73 67 0.0 1.7 0.00 0.00 0.00 87 1016.6
20260906030041 73 160 0.0 1.7 0.00 0.00 0.00 86 1016.6
20260906025541 73 66 0.0 0.9 0.00 0.00 0.00 86 1016.6
20260906025040 73 67 0.0 1.7 0.00 0.00 0.00 86 1016.6
20260906024555 73 255 0.0 1.7 0.00 0.00 0.00 85 1016.6
20260906024042 74 130 0.0 1.7 0.00 0.00 0.00 85 1016.6
20260906023540 74 121 0.0 1.7 0.00 0.00 0.00 85 1016.6
20260906023044 74 134 0.0 0.9 0.00 0.00 0.00 85 1016.6
20260906022539 74 94 0.0 0.9 0.00 0.00 0.00 84 1016.7
20260906022040 74 94 0.0 0.9 0.00 0.00 0.00 84 1016.7
20260906021539 74 94 0.0 0.9 0.00 0.00 0.00 84 1016.6
20260906021039 74 105 0.0 0.9 0.00 0.00 0.00 84 1016.6
20260906020539 73 94 0.0 0.9 0.00 0.00 0.00 84 1016.5
20260906020039 73 136 0.0 0.9 0.00 0.00 0.00 84 1016.4
20260906015538 73 155 0.0 0.0 0.00 0.00 0.00 84 1016.2
20260906015039 73 156 0.0 0.9 0.00 0.00 0.00 83 1016.2
20260906014539 74 158 0.0 2.6 0.00 0.00 0.00 83 1016.0
20260906014043 74 280 0.0 1.7 0.00 0.00 0.00 82 1015.7
20260906013539 74 242 0.0 0.0 0.00 0.00 0.00 80 1015.6
20260906013038 75 243 0.0 0.0 0.00 0.00 0.00 80 1015.4
20260906012538 75 102 0.0 0.0 0.00 0.00 0.00 79 1015.2
20260906011039 76 100 0.0 1.7 0.00 0.00 0.00 78 1014.6
20260906010535 76 117 0.0 2.6 0.00 0.00 0.00 77 1014.6
20260906010046 77 109 0.0 2.6 0.00 0.00 0.00 77 1014.4
20260906005535 77 84 0.0 0.9 0.00 0.00 0.00 76 1014.3
20260906005034 77 108 0.0 0.9 0.00 0.00 0.00 76 1014.3
20260906004535 78 86 0.0 1.7 0.00 0.00 0.00 75 1014.2
20260906004033 78 115 0.0 1.7 0.00 0.00 0.00 74 1014.2
20260906003533 79 115 0.0 1.7 0.00 0.00 0.00 73 1014.1
20260906003033 79 100 0.0 2.6 0.00 0.00 0.00 72 1014.2
20260906002532 80 122 0.0 2.6 0.00 0.00 0.00 70 1014.1
20260906002033 81 117 0.0 2.6 0.00 0.00 0.00 69 1014.2
20260906001536 82 108 0.0 1.7 0.00 0.00 0.00 68 1014.2
20260906000030 82 72 0.0 2.6 0.00 0.00 0.00 70 1014.2
20260905235529 82 74 0.0 3.5 0.00 0.00 0.00 70 1014.1
20260905235031 82 103 0.0 3.5 0.00 0.00 0.00 70 1014.0
20260905234529 81 90 0.0 3.5 0.00 0.00 0.00 71 1014.0
20260905234029 81 105 0.9 5.2 0.00 0.00 0.00 70 1014.1
20260905233528 81 111 1.7 6.1 0.00 0.00 0.00 70 1014.0
20260905233027 81 103 2.6 6.1 0.00 0.00 0.00 69 1014.0
20260905232528 82 110 1.7 4.3 0.00 0.00 0.00 71 1013.9
20260905232028 81 92 1.7 5.2 0.00 0.00 0.00 70 1014.0
20260905231528 81 105 1.7 5.2 0.00 0.00 0.00 70 1014.1
20260905231028 81 90 3.5 7.0 0.00 0.00 0.00 69 1014.1
20260905230528 81 109 3.5 7.0 0.00 0.00 0.00 69 1014.1
20260905230032 82 110 3.5 7.0 0.00 0.00 0.00 68 1014.1
20260905225530 82 109 3.5 7.0 0.00 0.00 0.00 69 1014.1
20260905225025 81 22 4.3 7.0 0.00 0.00 0.00 68 1014.1
20260905224525 81 103 4.3 7.8 0.00 0.00 0.00 69 1014.1
20260905224024 81 104 5.2 8.7 0.00 0.00 0.00 68 1014.1
20260905223525 82 89 5.2 8.7 0.00 0.00 0.00 69 1013.9
20260905223024 82 86 5.2 8.7 0.00 0.00 0.00 68 1014.0
20260905222523 82 90 5.2 7.8 0.00 0.00 0.00 69 1014.0
20260905222024 82 75 4.3 7.0 0.00 0.00 0.00 69 1013.9
20260905221523 82 121 3.5 7.0 0.00 0.00 0.00 69 1014.0
20260905221022 82 78 3.5 7.0 0.00 0.00 0.00 68 1014.1
20260905220521 82 101 4.3 7.0 0.00 0.00 0.00 67 1014.1
20260905220023 82 139 1.7 6.1 0.00 0.00 0.00 68 1014.1
20260905215519 81 91 3.5 11.3 0.00 0.00 0.00 69 1013.9
20260905215019 81 91 6.1 11.3 0.00 0.00 0.00 68 1013.7
20260905214518 81 124 4.3 9.6 0.00 0.00 0.00 69 1013.7
20260905214118 81 121 5.2 9.6 0.00 0.00 0.00 67 1013.7
20260905213517 81 110 3.5 9.6 0.00 0.00 0.00 69 1013.7
20260905213116 81 82 5.2 9.6 0.00 0.00 0.00 69 1013.5
20260905212515 81 124 6.1 12.2 0.00 0.00 0.00 69 1013.6
20260905212013 81 115 6.1 12.2 0.00 0.00 0.00 70 1013.8
20260905211529 81 77 6.1 10.4 0.00 0.00 0.00 68 1014.0
20260905211013 81 101 5.2 9.6 0.00 0.00 0.00 68 1014.0
20260905210511 81 94 4.3 9.6 0.00 0.00 0.00 70 1014.0
20260905210010 81 111 5.2 9.6 0.00 0.00 0.00 70 1014.0
20260905205509 80 127 6.1 10.4 0.00 0.00 0.00 70 1014.2
20260905205008 80 108 4.3 10.4 0.00 0.00 0.00 73 1014.4
20260905204507 80 105 5.2 10.4 0.00 0.00 0.00 72 1014.5
20260905204005 79 120 6.1 10.4 0.00 0.00 0.00 74 1014.6
20260905203505 79 111 4.3 8.7 0.00 0.00 0.00 75 1014.7
20260905203004 79 77 5.2 7.8 0.00 0.00 0.00 74 1014.8
20260905202503 79 47 5.2 11.3 0.00 0.00 0.00 76 1014.9
20260905202002 79 79 6.1 11.3 0.00 0.00 0.00 76 1015.0
20260905201501 79 82 5.2 9.6 0.00 0.00 0.00 77 1015.1
20260905201100 79 117 5.2 8.7 0.00 0.00 0.00 78 1015.2
20260905200559 78 79 5.2 8.7 0.00 0.00 0.00 79 1015.2
20260905200118 79 124 3.5 7.8 0.00 0.00 0.00 79 1015.4
20260905195556 78 121 3.5 7.8 0.00 0.00 0.00 81 1015.3
20260905194554 77 101 4.3 8.7 0.00 0.00 0.00 81 1015.6
20260905194055 77 106 4.3 7.8 0.00 0.00 0.00 82 1015.7
20260905193551 77 160 3.5 7.8 0.00 0.00 0.00 83 1015.8
20260905193052 76 94 1.7 7.0 0.00 0.00 0.00 85 1015.9
20260905192550 76 77 3.5 7.0 0.00 0.00 0.00 85 1016.0
20260905192049 76 86 3.5 7.8 0.00 0.00 0.00 84 1015.8
20260905191549 76 105 4.3 7.8 0.00 0.00 0.00 85 1015.7
20260905191050 76 65 3.5 9.6 0.00 0.00 0.00 86 1015.7
20260905190647 75 124 4.3 9.6 0.00 0.00 0.00 86 1015.7
20260905190045 75 103 5.2 7.8 0.00 0.00 0.00 87 1015.8
20260905185543 74 77 3.5 8.7 0.00 0.00 0.00 88 1015.9
20260905185043 73 96 2.6 8.7 0.00 0.00 0.00 88 1016.0
20260905184543 73 121 5.2 8.7 0.00 0.00 0.00 87 1016.0
20260905184046 73 99 2.6 7.0 0.00 0.00 0.00 88 1016.2
20260905183542 73 101 3.5 7.0 0.00 0.00 0.00 86 1016.2
20260905183045 73 67 0.0 5.2 0.00 0.00 0.00 89 1016.2
20260905182541 73 120 1.7 3.5 0.00 0.00 0.00 87 1016.4
20260905182039 73 57 0.0 2.6 0.00 0.00 0.00 88 1016.5
20260905181538 73 77 0.0 3.5 0.00 0.00 0.00 88 1016.6
20260905181038 72 77 0.9 3.5 0.00 0.00 0.00 88 1016.8
20260905180538 72 124 0.0 3.5 0.00 0.00 0.00 88 1016.9
20260905180036 73 326 0.0 1.7 0.00 0.00 0.00 88 1017.1
20260905175536 72 243 0.0 3.5 0.00 0.00 0.00 89 1017.0
20260905175038 72 174 0.0 3.5 0.00 0.00 0.00 89 1017.0
20260905174536 72 85 0.0 4.3 0.00 0.00 0.00 88 1017.0
20260905174035 72 115 0.0 5.2 0.00 0.00 0.00 89 1017.1
20260905173539 72 181 0.9 5.2 0.00 0.00 0.00 88 1017.2
20260905173053 72 161 0.9 4.3 0.00 0.00 0.00 88 1017.3
20260905172534 72 153 0.9 6.1 0.00 0.00 0.00 89 1017.4
20260905172033 72 204 1.7 6.1 0.00 0.00 0.00 91 1017.3
20260905171532 71 173 0.0 6.1 0.00 0.00 0.00 93 1017.1
20260905171033 70 102 0.9 6.1 0.00 0.00 0.00 94 1017.1
20260905170528 69 184 0.0 7.0 0.00 0.00 0.00 95 1017.2
20260905170027 69 86 2.6 7.8 0.00 0.00 0.00 95 1017.2
20260905165525 68 111 0.0 7.8 0.00 0.00 0.00 97 1017.2
20260905165024 68 84 0.0 7.8 0.00 0.00 0.00 97 1017.2
20260905164625 68 122 2.6 8.7 0.00 0.00 0.00 97 1017.1
20260905164027 67 109 4.3 7.0 0.00 0.00 0.00 97 1016.9